Regional Weather Roundup
Issued by NWS

Home | Current Version | Previous Version | Graphics & Text | Print | Product List | Glossary On
Versions: 1 2 3 4 5 6 7 8 9 10 11 12 13 14 15 16 17 18 19 20 21 22 23 24 25 26 27 28 29 30 31 32 33 34 35 36 37 38 39 40 41 42 43 44 45 46 47 48 49 50
000
ASUS43 KMKX 231600
RWRWI

WISCONSIN REGIONAL WEATHER ROUNDUP
NATIONAL WEATHER SERVICE MILWAUKEE/SULLIVAN WI
1100 AM CDT SAT MAY 23 2015

NOTE: "FAIR" INDICATES FEW OR NO CLOUDS BELOW 12,000 FEET WITH NO
SIGNIFICANT WEATHER AND/OR OBSTRUCTIONS TO VISIBILITY.

WIZ001-002-006>008-014>016-023>028-231700-
NORTHWEST WISCONSIN

CITY           SKY/WX    TMP DP  RH WIND       PRES   REMARKS
SUPERIOR ARPT  SUNNY     74  41  30 SW9       30.20F
ASHLAND        SUNNY     74  38  27 SW9       30.21F
HAYWARD        SUNNY     72  31  22 W7        30.23F
SIREN          MOSUNNY   70  40  33 S6        30.23F
CUMBERLAND     MOSUNNY   66  41  39 S6        30.24F
RICE LAKE      MOSUNNY   69  39  33 SE5       30.25F
CHETEK         MOSUNNY   69  47  45 MISG      30.24F
LADYSMITH      SUNNY     68  44  42 CALM      30.27F
EAU CLAIRE     NOT AVBL
MENOMONIE      PTSUNNY   64  45  50 S5        30.25F
NEW RICHMOND   PTSUNNY   65  44  46 SW7       30.25S
OSCEOLA        PTSUNNY   67  47  48 SW5       30.26F
$$

WIZ003>005-009-010-017-018-231700-
NORTH CENTRAL WISCONSIN

CITY           SKY/WX    TMP DP  RH WIND       PRES   REMARKS
MANITOWISH WTR SUNNY     68  37  32 SW8       30.25F
ARBOR VITAE    SUNNY     70  35  28 W10       30.25F
WOODRUFF       SUNNY     70  35  28 W10       30.25F
RHINELANDER    MOSUNNY   70  35  27 SW13G20   30.27F
EAGLE RIVER    SUNNY     69  31  25 W8        30.26S
LAND O LAKES   SUNNY     70  32  24 SW10      30.25F
PHILLIPS       MOSUNNY   68  36  30 SW8       30.26S
TOMAHAWK       MOSUNNY   67  40  36 SW3       30.28S
MEDFORD        SUNNY     67  45  44 SE3       30.27F
MERRILL        MOSUNNY   66  45  46 SW3       30.28F
$$

WIZ029-030-035-036-043>047-231700-
CENTRAL WISCONSIN

CITY           SKY/WX    TMP DP  RH WIND       PRES   REMARKS
WAUSAU         SUNNY     67  43  41 CALM      30.25F
MOSINEE        SUNNY     66  43  42 VRB5      30.28F
MARSHFIELD     SUNNY     70  42  36 SW7       30.26F
STEVENS POINT  SUNNY     68  40  35 SW6       30.28F
WAUPACA        SUNNY     72  35  26 SW6       30.29F
WAUTOMA        NOT AVBL
WISC RAPIDS    SUNNY     71  38  29 SW8       30.28F
CAMP DOUGLAS   NOT AVBL
$$

WIZ011>013-019>022-031-037>040-048>050-231700-
NORTHEAST WISCONSIN

CITY           SKY/WX    TMP DP  RH WIND       PRES   REMARKS
ANTIGO         MOSUNNY   65  43  44 SW7       30.29S
SHAWANO        MOSUNNY   69  38  32 SW6       30.29F
OCONTO         SUNNY     68  38  33 SW8       30.28F
STURGEON BAY   MOSUNNY   66  37  34 SW15      30.31F
GREEN BAY      SUNNY     69  38  32 SW10      30.29F
MANITOWOC      NOT AVBL
APPLETON       MOSUNNY   68  34  28 S10       30.30F
CLINTONVILLE   SUNNY     68  34  28 SW9       30.29F
OSHKOSH        SUNNY     70  38  31 SW12      30.29F
$$

WIZ032>034-041-042-053>061-231700-
SOUTHWEST WISCONSIN

CITY           SKY/WX    TMP DP  RH WIND       PRES   REMARKS
LA CROSSE      PTSUNNY   67  47  48 S5        30.26F
SPARTA         MOSUNNY   71  39  31 S9        30.26F
VIROQUA        PTSUNNY   66  43  43 S7        30.28F
BOSCOBEL       MOSUNNY   73  45  36 VRB3      30.28F
PRAIRIE DU CHI PTSUNNY   67  46  46 SW3       30.26F
PLATTEVILLE    MOSUNNY   69  44  40 S6        30.28F
$$

WIZ056-057-062-063-064-067-068-231700-
SOUTH CENTRAL WISCONSIN

CITY           SKY/WX    TMP DP  RH WIND       PRES   REMARKS
REEDSBURG      MOSUNNY   68  44  41 S5        30.28F
BARABOO/DELLS  MOSUNNY   70  39  31 S7        30.28F
LONE ROCK      NOT AVBL
MINERAL POINT  MOSUNNY   70  43  37 S5        30.28F
MADISON        PTSUNNY   70  41  34 S8        30.29F
MIDDLETON      MOSUNNY   72  32  23 SE9       30.29F
WATERTOWN      SUNNY     71  39  31 S12G17    30.30F
MONROE         MOSUNNY   68  45  42 S7        30.29F
JANESVILLE     SUNNY     73  37  27 S12       30.29F
$$

WIZ051-052-058>065-066-070>072-231700-
SOUTHEAST WISCONSIN

CITY           SKY/WX    TMP DP  RH WIND       PRES   REMARKS
MILWAUKEE      MOSUNNY   72  37  28 S13       30.31F
WAUKESHA       MOSUNNY   70  37  30 S8        30.33F
MILWAUKEE/TIMM SUNNY     72  30  21 SW8       30.32F
RACINE         SUNNY     70  36  28 S13       30.34F
BURLINGTON     SUNNY     71  38  30 S12       30.31F
KENOSHA        SUNNY     73  41  31 S12       30.32F
FOND DU LAC    SUNNY     72  36  26 SW13      30.30F
SHEBOYGAN      SUNNY     72  37  28 S9        30.30F
WEST BEND      SUNNY     70  34  26 S8        30.31F
JUNEAU         SUNNY     68  40  35 S13       30.32F
$$

LSZ147-162-231700-
LAKE SUPERIOR

STATION/POSITION TIME  TEMP    WIND        PRES    WAVE
                       AIR SEA DIR/SP/G            HT/PER
                 (UTC) (F)     (DEG/KT/KT) (MB)    (FT/S)
W MID LAKE BUOY  1450   45 36  230/ 14/ 14   N/A     1/ 3
DEVILS ISLAND    1500   49     230/ 10/ 13   N/A
PORT WING        1500   60     270/  9/ 10   N/A
SAXON HARBOR     1540   72     250/  9/ 13   N/A
$$

LMZ867-665-643>646-231700-
LAKE MICHIGAN

STATION/POSITION TIME  TEMP    WIND        PRES    WAVE
                       AIR SEA DIR/SP/G            HT/PER
                 (UTC) (F)     (DEG/KT/KT) (MB)    (FT/S)
CHAMBERS ISLAND  1500   57     170/  5/ 15   N/A
N MID LAKE BUOY  1450   40 36  200/ 14/ 16   N/A     2/ 3
NORTHPORT PIER   1500   64     220/  7/ 16   N/A
SISTER BAY       1502   63     260/ 13/ 15   N/A
KEWAUNEE LAKESHO 1500   48     170/  9/ 12   N/A
SHEBOYGAN LAKESH 1500   49     160/ 16/ 17   N/A
PORT WASHINGTON  1500   53      CALM  /  2   N/A
ATWATER BUOY     1500   49 45  130/ 10/ 10   N/A
MILWAUKEE LAKESH 1500   51     120/  9/ 10   N/A
S MID LAKE BUOY  1450   43 38  170/  4       N/A     0
KENOSHA   LAKESH 1500   53     170/  9/ 10   N/A
$$

TC  - TEMPERATURE IN CELSIUS
VSB - VISIBILITY IN STATUTE MILES
WCI - WIND CHILL INDEX
HX  - HEAT INDEX



USA.gov is the U.S. government's official web portal to all federal, state and local government web resources and services.